Overview Statistics Trail Chart Weather Telemetry Raw packets
 

This is the latest recevied weather packets stored in our database for station/object W7TRD. If no packets are shown the sender has not sent any weather packets the latest 10 day(s).

<< 31 32 33 34 35 36 37 >>
Time Temp. Humidity Pressure Rain* Wind** Luminosity Snow
1788408408 14.44° C 95% 1010 hPa 0 mm - 0 W/m² -
1788408104 14.44° C 94% 1010 hPa 0 mm - 0 W/m² -
1788407800 14.44° C 94% 1009.9 hPa 0 mm - 0 W/m² -
1788407496 14.44° C 94% 1009.7 hPa 0 mm - 0 W/m² -
1788407196 14.44° C 94% 1009.6 hPa 0 mm - 0 W/m² -
1788406891 14.44° C 94% 1009.7 hPa 0 mm - 0 W/m² -
1788406586 14.44° C 94% 1009.7 hPa 0 mm - 0 W/m² -
1788406286 15° C 94% 1009.6 hPa 0 mm - 0 W/m² -
1788405982 15° C 94% 1009.5 hPa 0 mm - 0 W/m² -
1788405677 15° C 93% 1009.6 hPa 0 mm - 0 W/m² -
1788405372 15° C 93% 1009.5 hPa 0 mm - 0 W/m² -
1788405067 15° C 93% 1009.7 hPa 0 mm - 0 W/m² -
1788404763 15° C 93% 1009.5 hPa 0 mm - 0 W/m² -
1788404459 15° C 92% 1009.3 hPa 0 mm - 0 W/m² -
1788404153 15° C 93% 1009.4 hPa 0 mm - 1 W/m² -
1788403849 15° C 93% 1009.2 hPa 0 mm - 1 W/m² -
1788403549 15° C 93% 1009.4 hPa 0 mm - 3 W/m² -
1788403243 15° C 94% 1009 hPa 0 mm - 5 W/m² -
1788402939 15° C 93% 1009.3 hPa 0 mm - 7 W/m² -
1788402634 15° C 93% 1009.1 hPa 0 mm - 13 W/m² -
1788402333 15° C 93% 1009 hPa 0 mm - 16 W/m² -
1788402032 15° C 93% 1008.9 hPa 0 mm - 23 W/m² -
1788401727 15.56° C 93% 1009 hPa 0 mm - 22 W/m² -
1788401422 15.56° C 92% 1009 hPa 0 mm - 21 W/m² -
1788401118 15.56° C 92% 1008.9 hPa 0 mm - 34 W/m² -

* Rain latest hour (hover to see other rain measurements)
** Current wind speed in m/s (hover to see current wind gust speed)